DW5759 Weather Reports


Display with metric or nautical units.
time (UTC)temp
F
wind
direction
speed
MPH
gust
MPH
rain 1hr
in
rain 24hr
in
rain mn
in
humidity
%
barometer
mb
20200331110029 37 282 0.0 3.0 0.00 0.21 0.04 95 1019.7
20200331104609 37 98 0.0 1.0 0.00 0.21 0.04 95 1019.5
20200331103039 37 99 0.0 0.0 0.01 0.21 0.04 95 1019.4
20200331101528 37 101 0.0 0.0 0.01 0.21 0.04 95 1019.0
20200331100021 37 101 0.0 1.0 0.01 0.21 0.04 95 1018.8
20200331094530 37 108 0.0 1.0 0.01 0.21 0.04 95 1018.6
20200331093025 37 274 0.0 1.0 0.00 0.20 0.03 95 1018.4
20200331091511 37 245 0.0 1.0 0.00 0.20 0.03 95 1018.2
20200331090007 37 127 0.0 2.0 0.00 0.20 0.03 95 1018.1
20200331084505 38 284 0.0 0.0 0.00 0.20 0.03 95 1017.9
20200331083002 38 286 0.0 0.0 0.00 0.20 0.03 95 1017.9
20200331081514 38 285 0.0 0.0 0.01 0.20 0.03 95 1017.9
20200331080003 38 286 0.0 0.0 0.01 0.20 0.03 95 1017.9
20200331074702 38 285 0.0 0.0 0.01 0.20 0.03 95 1017.8
20200331073215 39 284 0.0 0.0 0.01 0.20 0.03 95 1018.0
20200331071720 39 284 0.0 0.0 0.01 0.20 0.02 96 1017.9
20200331070222 39 286 0.0 0.0 0.01 0.20 0.02 95 1017.8
20200331064726 39 286 0.0 0.0 0.01 0.20 0.02 95 1017.9
20200331063124 39 117 0.0 0.0 0.02 0.20 0.02 96 1017.8
20200331061616 40 117 0.0 0.0 0.01 0.19 0.02 95 1017.8
20200331060129 40 107 0.0 0.0 0.01 0.19 0.02 96 1017.7
20200331054558 40 108 0.0 0.0 0.02 0.19 0.02 96 1017.8
20200331053137 40 107 0.0 0.0 0.01 0.18 0.01 96 1017.8
20200331051624 40 107 0.0 0.0 0.01 0.18 0.01 96 1017.7
20200331050138 41 109 0.0 0.0 0.01 0.18 0.01 96 1017.7
20200331044556 41 109 0.0 0.0 0.00 0.17 0.00 96 1017.6
20200331043156 41 106 0.0 0.0 0.01 0.17 0.00 96 1017.6
20200331041549 41 107 0.0 1.0 0.01 0.17 0.00 96 1017.4
20200331040057 41 107 0.0 2.0 0.02 0.17 0.00 95 1017.4
20200331034611 41 180 0.0 0.0 0.02 0.17 0.17 96 1017.5
20200331033052 41 181 0.0 0.0 0.02 0.17 0.17 95 1017.3
20200331031622 42 118 0.0 0.0 0.02 0.17 0.17 95 1017.2
20200331030144 42 310 0.0 1.0 0.03 0.16 0.16 96 1017.2
20200331024553 43 117 0.0 2.0 0.04 0.15 0.15 96 1017.2
20200331023048 43 304 0.0 0.0 0.06 0.15 0.15 96 1017.3
20200331021644 43 304 0.0 0.0 0.06 0.14 0.14 96 1017.3
20200331020050 43 304 0.0 0.0 0.04 0.13 0.13 95 1017.3
20200331014601 44 304 0.0 1.0 0.03 0.11 0.11 96 1017.1
20200331013051 44 277 0.0 0.0 0.02 0.09 0.09 96 1016.9
20200331011552 44 277 0.0 0.0 0.02 0.09 0.09 95 1016.7
20200331010139 44 277 0.0 0.0 0.03 0.09 0.09 95 1016.5
20200331004539 44 296 0.0 0.0 0.02 0.09 0.08 95 1016.5
20200331003045 45 292 0.0 0.0 0.02 0.08 0.07 95 1016.2
20200331001536 45 283 0.0 0.0 0.02 0.07 0.06 94 1016.1
20200331000028 45 282 0.0 0.0 0.01 0.06 0.06 94 1015.9
20200330234604 45 283 0.0 0.0 0.01 0.07 0.06 94 1015.7
20200330233150 45 283 0.0 0.0 0.00 0.06 0.05 93 1015.6
20200330231618 45 283 0.0 0.0 0.00 0.06 0.05 93 1015.3
20200330230041 46 282 0.0 0.0 0.00 0.06 0.05 92 1015.1
20200330224549 46 283 0.0 0.0 0.00 0.08 0.05 91 1015.0
20200330223024 46 283 0.0 0.0 0.00 0.08 0.05 90 1014.8
20200330221529 47 283 0.0 0.0 0.00 0.08 0.05 90 1014.6
20200330220038 47 277 0.0 0.0 0.00 0.08 0.05 90 1014.4
20200330214524 47 52 0.0 1.0 0.00 0.09 0.05 89 1014.3
20200330213023 47 254 0.0 0.0 0.00 0.09 0.05 90 1014.0
20200330211521 47 253 0.0 0.0 0.00 0.09 0.05 91 1014.2
20200330210046 47 253 0.0 0.0 0.00 0.09 0.05 91 1014.3
20200330204521 47 195 0.0 0.0 0.00 0.10 0.05 92 1014.0
20200330203018 46 103 0.0 0.0 0.00 0.10 0.05 94 1014.0
20200330201516 45 329 0.0 0.0 0.00 0.10 0.05 93 1014.3
20200330200039 45 325 0.0 0.0 0.00 0.10 0.05 93 1014.3
20200330194524 45 336 0.0 0.0 0.01 0.12 0.05 93 1014.3
20200330193031 45 351 0.0 0.0 0.04 0.12 0.05 93 1014.1
20200330191512 45 19 0.0 0.0 0.05 0.12 0.05 94 1013.7
20200330190009 44 19 0.0 0.0 0.05 0.12 0.05 93 1014.0
20200330184504 44 325 0.0 0.0 0.03 0.13 0.03 92 1014.3
20200330183004 44 323 0.0 0.0 0.01 0.10 0.01 91 1014.7
20200330181506 44 267 0.0 0.0 0.00 0.09 0.00 91 1014.5
20200330180003 44 269 0.0 0.0 0.00 0.09 0.00 91 1014.5
20200330174511 44 269 0.0 0.0 0.00 0.09 0.00 90 1014.4
20200330173318 44 269 0.0 0.0 0.00 0.09 0.00 90 1014.5
20200330171656 43 140 0.0 0.0 0.00 0.09 0.00 91 1014.5
20200330170123 43 140 0.0 0.0 0.00 0.09 0.00 91 1014.7
20200330164631 43 140 0.0 0.0 0.00 0.09 0.00 91 1014.8
20200330163218 43 140 0.0 0.0 0.00 0.09 0.00 91 1014.9
20200330161627 43 111 0.0 0.0 0.00 0.09 0.00 91 1014.6
20200330160147 44 124 0.0 0.0 0.00 0.09 0.00 91 1014.9
20200330154610 44 123 0.0 0.0 0.00 0.09 0.00 91 1014.8
20200330153200 44 126 0.0 0.0 0.00 0.09 0.00 92 1015.1
20200330151654 44 127 0.0 0.0 0.00 0.09 0.00 92 1015.2
20200330150156 43 127 0.0 1.0 0.00 0.09 0.00 92 1015.3
20200330144642 43 198 0.0 0.0 0.00 0.14 0.00 93 1015.5
20200330143136 43 267 0.0 1.0 0.00 0.14 0.00 94 1015.7
20200330141701 42 281 0.0 2.0 0.00 0.14 0.00 95 1015.9
20200330140053 42 90 0.0 0.0 0.00 0.14 0.00 95 1016.0
20200330134556 41 91 0.0 0.0 0.00 0.16 0.00 95 1016.1
20200330133205 41 92 0.0 0.0 0.00 0.16 0.00 95 1016.3
20200330131622 41 273 0.0 0.0 0.00 0.16 0.00 96 1016.3
20200330130154 41 167 0.0 2.0 0.00 0.16 0.00 96 1016.3
20200330124638 41 108 0.0 0.0 0.00 0.16 0.00 96 1016.5
20200330123147 40 108 0.0 1.0 0.00 0.16 0.00 97 1016.4
20200330121644 40 107 0.0 0.0 0.00 0.16 0.00 97 1016.8
20200330120119 40 108 0.0 1.0 0.00 0.16 0.00 97 1016.7
20200330114555 40 265 0.0 0.0 0.00 0.17 0.00 97 1016.4
20200330113117 40 265 0.0 0.0 0.00 0.17 0.00 96 1016.6
20200330111629 40 265 0.0 1.0 0.00 0.17 0.00 96 1016.5